Regional Weather Roundup
Issued by NWS

Home | Current Version | Previous Version | Text Only | Print | Product List | Glossary On
Versions: 1 2 3 4 5 6 7 8 9 10 11 12 13 14 15 16 17 18 19 20 21 22 23 24 25 26 27 28 29 30 31 32 33 34 35 36 37 38 39 40 41 42 43 44 45 46 47 48 49 50
000
ASUS43 KMPX 050110
RWRMN
WEATHER ROUNDUP FOR MINNESOTA
NATIONAL WEATHER SERVICE TWIN CITIES/CHANHASSEN MN
700 PM CST SUN DEC 04 2016


NOTE: "FAIR" INDICATES FEW OR NO CLOUDS BELOW 12,000 FEET WITH NO
SIGNIFICANT WEATHER AND/OR OBSTRUCTIONS TO VISIBILITY. N/A MEANS
CURRENT SKY AND/OR WEATHER CONDITIONS ARE NOT AVAILABLE.

MNZ060>063-068>070-050200-
   Twin Cities Metro

CITY           SKY/WX    TMP DP  RH WIND       PRES   REMARKS
TWIN CITIES    CLOUDY    38  32  79 W10       29.75S
ST PAUL        CLOUDY    37  34  89 SW8       29.76F
CRYSTAL        CLOUDY    37  31  78 W15       29.74R
BLAINE         CLOUDY    37  37 100 SW8       29.73S
LAKEVILLE      CLEAR     34  34 100 SW3       29.75F
EDEN PRAIRIE   MOCLDY    37  31  78 W12       29.75S
SOUTH ST PAUL  CLOUDY    37  35  94 SW6       29.75S
LAKE ELMO      CLOUDY    36  34  93 SW6       29.75S
$$
MNZ001>005-007-008-013>017-022>024-027-028-050200-
   Northwest Minnesota

CITY           SKY/WX    TMP DP  RH WIND       PRES   REMARKS
BEMIDJI        CLOUDY    29  28  93 W6        29.62F WCI  23
HALLOCK        LGT SNOW  30  30 100 W8        29.61S WCI  23
ROSEAU         LGT SNOW  30  27  86 SW7       29.59F WCI  23
WARROAD        CLOUDY    30  27  86 SW6       29.59F WCI  24
THIEF RVR FALL FLURRIES  30  28  92 SW10      29.63S WCI  21
CROOKSTON      CLOUDY    30  30 100 W13       29.66S WCI  20
FOSSTON        CLOUDY    28  27  93 SW9       29.64S WCI  20
DETROIT LAKES  CLOUDY    32  30  93 W10G16    29.68S WCI  24
MOORHEAD       MOCLDY    30  27  86 W3        29.70S
PARK RAPIDS    CLOUDY    32  26  78 W10       29.64F WCI  24
$$
MNZ006-009>011-018-025>026-050200-
   North Central Minnesota

CITY           SKY/WX    TMP DP  RH WIND       PRES   REMARKS
BAUDETTE       CLOUDY    32  31  96 S5        29.58F FOG     WCI  27
FLAG ISLAND    LGT SNOW  32  30  93 SW9       29.56F WCI  24
INTL FALLS     LGT SNOW  31  29  92 SE7       29.61F VSB 1   WCI  24
WASKISH        CLOUDY    30  30 100 SW12      29.61S FOG     WCI  21
BIG FORK       LGT SNOW  32  30  93 CALM      29.61F
LONGVILLE      CLOUDY    30  28  93 W10       29.64S WCI  21
GRAND RAPIDS   LGT SNOW  31  31 100 S7        29.64F FOG     WCI  24
CRANE LAKE     LGT SNOW  28  28 100 CALM      29.66F
ORR            LGT SNOW  30  27  86 CALM      29.60F
COOK           FLURRIES  30  28  93 SE3       29.63F
$$
MNZ012-019>021-037-050200-
   Northeast Minnesota

CITY           SKY/WX    TMP DP  RH WIND       PRES   REMARKS
DULUTH         FRZ DRZL  31  31 100 S9        29.65F FOG     WCI  23
ELY            LGT SNOW  30  28  93 CALM      29.64F
HIBBING        CLOUDY    29  29 100 S6        29.63F FOG     WCI  23
EVELETH        LGT SNOW  32  31  97 SE3       29.65F
DULUTH HARBOR  CLOUDY    34  30  86 CALM      29.69F
TWO HARBORS    LGT SNOW  36  30  80 S3        29.65F
SILVER BAY     LGT SNOW  34  32  93 S3        29.66F
GRAND MARAIS     N/A     36  34  92 S14       29.70F
G MARAIS ARPRT MIX PCPN  28  25  86 S3        29.65F VSB 3/4
$$
MNZ029>031-032-039>041-046>048-054>057-064-050200-
   West Central Minnesota

CITY           SKY/WX    TMP DP  RH WIND       PRES   REMARKS
FERGUS FALLS   CLOUDY    34  32  93 W5        29.74F WCI  30
MORRIS         MOCLDY    34  30  86 SW9       29.72F WCI  26
ALEXANDRIA     CLOUDY    33  31  92 SW9       29.71F WCI  25
ELBOW LAKE     CLOUDY    32  32  99 CALM      29.71F
WADENA         CLOUDY    30  28  93 SW8       29.67F WCI  23
GLENWOOD       MOCLDY    34  30  86 SW9       29.71F WCI  26
APPLETON       CLEAR     34  28  80 SW7       29.74F WCI  28
BENSON         CLOUDY    36  30  80 W9        29.74F
ORTONVILLE     CLEAR     32  28  86 CALM      29.73F
MADISON        CLEAR     36  34  93 W9        29.75F
WILLMAR        CLOUDY    36  34  93 W8        29.76F
$$
MNZ033>034-036-042>043-049>051-058-059-050200-
   Central Minnesota

CITY           SKY/WX    TMP DP  RH WIND       PRES   REMARKS
ST CLOUD       CLOUDY    34  32  92 W8        29.72S WCI  27
PAYNESVILLE    CLOUDY    34  34 100 W8        29.74F WCI  27
AITKIN         CLOUDY    36  30  80 SW7       29.64S
PINE RIVER     CLOUDY    32  28  86 W6        29.70R WCI  26
BRAINERD       CLOUDY    32  29  88 W15       29.68R WCI  22
STAPLES        CLOUDY    30  28  93 W8        29.68S WCI  23
LONG PRAIRIE   CLOUDY    32  30  93 S7        29.70F WCI  26
LITTLE FALLS   CLOUDY    34  28  80 SW6       29.70F WCI  29
LITCHFIELD     CLOUDY    37  34  87 W8        29.76S
BUFFALO        CLOUDY    35  31  87 W7        29.76S WCI  29
MAPLE LAKE     CLOUDY    36  33  88 W7        29.75S
$$
MNZ037-044-045-052-053-050200-
   East Central Minnesota

CITY           SKY/WX    TMP DP  RH WIND       PRES   REMARKS
PRINCETON      CLOUDY    36  34  93 W7        29.73R
MORA           CLOUDY    34  32  93 W6        29.71F WCI  29
CAMBRIDGE      CLOUDY    36  34  93 SW7       29.71R
RUSH CITY      CLOUDY    34  32  93 SW6       29.71F WCI  29
MOOSE LAKE     CLOUDY    32  32 100 SW7       29.65F FOG     WCI  26
HINCKLEY       CLOUDY    34  34 100 SW8       29.69S WCI  27
CLOQUET        MIX PCPN  32  30  93 S5        29.65F WCI  27
MCGREGOR       CLOUDY    34  32  93 SW7       29.65F WCI  28
$$
MNZ071>073-080-081-089-090-097-098-050200-
   Southwest Minnesota

CITY           SKY/WX    TMP DP  RH WIND       PRES   REMARKS
MONTEVIDEO     CLEAR     32  28  86 CALM      29.77F
GRANITE FALLS  CLEAR     33  32  94 CALM      29.78F
CANBY          CLEAR     35  31  84 CALM      29.76F
MARSHALL       CLEAR     34  30  85 W7        29.77F WCI  28
REDWOOD FALLS  CLEAR     34  29  82 W5        29.77F WCI  30
OLIVIA         PTCLDY    34  32  93 NW6       29.76S WCI  29
PIPESTONE      CLEAR     34  30  86 W7        29.77F WCI  28
WINDOM         CLEAR     36  30  80 CALM      29.78F
WORTHINGTON    CLEAR     35  31  85 SW10      29.79F WCI  27
JACKSON        PTCLDY    34  30  86 SW7       29.80F WCI  28
TRACY          CLEAR     35  33  90 SW9       29.77F WCI  28
SLAYTON        CLEAR     34  32  91 SW9       29.78F WCI  27
$$
MNZ065>067-074>077-082>085-091>093-050200-
   South Central Minnesota

CITY           SKY/WX    TMP DP  RH WIND       PRES   REMARKS
MANKATO        CLEAR     37  31  78 W10       29.79R
NEW ULM        CLEAR     34  30  86 W6        29.78S WCI  29
ST JAMES       CLEAR     34  30  86 SW7       29.80S WCI  28
FAIRMONT       CLEAR     36  32  85 W12       29.80S
GLENCOE        MOCLDY    36  34  94 W7        29.76S
FARIBAULT      PTCLDY    36  34  93 S5        29.77F
OWATONNA       PTCLDY    36  32  87 SW12G17   29.77F
WASECA         MOCLDY    34  32  93 SW9       29.79S FOG     WCI  26
ALBERT LEA     MOCLDY    39  37  93 SW9       29.79F FOG
$$
MNZ078>079-086>088-094>096-050200-
   Southeast Minnesota

CITY           SKY/WX    TMP DP  RH WIND       PRES   REMARKS
ROCHESTER      CLOUDY    34  32  92 SW13      29.78F WCI  25
RED WING       CLOUDY    37  34  87 SW3       29.76S
STANTON        CLEAR     34  32  92 SW8       29.75F WCI  27
DODGE CENTER   PTCLDY    34  32  93 SW14      29.77F WCI  24
WINONA         CLOUDY    36  32  87 SW9       29.81F
PRESTON        CLOUDY    32  30  93 SW9       29.81S WCI  24
$$
ABBREVIATIONS USED IN REMARKS
   TC - TEMPERATURES IN CELSIUS
  WCI - WIND CHILL INDEX
   HX - HEAT INDEX
  VSB - VISIBILITY
$$



USA.gov is the U.S. government's official web portal to all federal, state and local government web resources and services.